Lid_Strength_Index
-1 1 3 5 9 10 12 11 8 8 8 6 5 7 7 6 8 12 2 1 0 0 -1 -1 -1 -2 -2 -2 -2 -2 -2 -3 -2 -2 -2 -2 -2 -2 -2 -2 -2 -2 -2 -2 -2 -2 -2 -2 -2
0 2 4 6 11 13 12 10 9 8 6 5 6 6 7 8 4 4 3 1 0 -0 -0 -1 -1 -1 -2 -2 -2 -2 -2 -2 -2 -2 -2 -2 -2 -2 -2 -2 -3 -2 -2 -2 -2 -2 -2 -2 -2
1 2 7 8 10 12 12 9 8 7 6 6 7 5 6 7 4 3 1 1 0 0 -0 -1 -1 -1 -2 -2 -2 -2 -2 -2 -2 -2 -2 -2 -2 -2 -2 -3 -3 -3 -2 -2 -2 -2 -2 -2 -2
2 3 6 10 11 10 9 8 7 7 6 6 6 7 5 2 4 2 1 0 1 1 -0 -0 -1 -1 -2 -2 -2 -2 -2 -2 -2 -2 -2 -2 -2 -2 -3 -3 -3 -3 -2 -2 -2 -2 -2 -2 -2
2 5 10 11 10 10 8 7 6 7 7 6 6 8 7 3 1 1 1 1 1 1 -0 -1 -1 -1 -2 -2 -2 -2 -2 -2 -2 -3 -2 -2 -2 -2 -2 -3 -3 -3 -2 -2 -2 -2 -2 -2 -2
6 6 12 13 10 10 8 7 7 7 7 6 7 8 7 3 2 2 1 1 1 1 -0 -1 0 -0 -1 -2 -2 -2 -2 -2 -2 -3 -3 -2 -2 -2 -2 -3 -2 -3 -2 -2 -2 -2 -2 -2 -2
7 9 12 11 10 9 9 7 8 8 7 7 6 8 6 4 2 1 1 1 1 1 -0 -0 -0 -0 0 -1 -1 -1 -2 -2 -2 -2 -3 -2 -2 -2 -2 -2 -2 -2 -2 -2 -2 -2 -2 -2 -2
6 8 11 10 11 10 8 8 8 8 8 5 5 8 8 4 2 1 1 1 1 1 1 0 -0 -0 -0 -0 0 -0 -0 -1 -1 -2 -1 -1 -1 -1 -1 -1 -2 -2 -2 -2 -2 -2 -2 -1 -1
4 11 12 11 10 9 7 9 8 7 9 7 5 5 4 2 2 2 2 2 2 1 1 0 0 -0 -0 -0 0 1 0 -0 -0 -0 -0 0 -0 -0 -1 -1 -2 -2 -2 -2 -2 -2 -2 -2 -2
8 11 10 7 7 8 7 7 7 8 9 9 7 4 3 3 3 3 3 3 3 2 2 2 0 -0 -0 -0 -0 -0 -0 -0 -0 -0 -0 -0 -0 -0 -1 0 -1 -1 -1 -1 -1 -1 -2 -1 1
7 11 7 7 6 6 7 7 6 7 8 7 8 5 4 4 4 4 3 3 2 2 2 2 1 0 -0 0 0 0 0 0 0 0 -0 -0 0 1 0 1 0 0 1 0 -0 -0 -0 0 1
9 7 6 6 5 6 7 6 7 7 7 4 5 5 4 4 4 4 3 3 2 2 1 1 1 1 0 -0 -0 0 0 0 1 0 -0 0 1 1 1 1 1 1 1 1 1 1 1 1 1
8 7 6 5 6 6 6 7 7 7 5 4 4 4 5 4 4 3 2 2 2 2 2 1 1 1 0 0 -0 0 1 1 1 1 0 0 1 1 1 1 1 1 1 1 1 1 1 1 1
6 7 7 6 6 6 7 7 7 6 5 5 5 5 5 5 5 5 4 3 2 2 2 1 1 1 0 0 1 1 1 1 1 1 1 1 1 1 1 1 1 1 1 1 1 2 1 1 1
6 9 8 7 7 7 6 9 9 5 5 6 6 6 5 5 5 5 5 4 3 2 2 2 1 0 1 1 1 1 1 1 1 1 0 0 0 1 1 1 1 1 1 2 2 2 1 2 1
9 10 13 8 7 7 8 12 8 6 6 6 6 5 6 5 5 5 4 4 3 2 2 3 1 1 1 1 0 1 1 1 1 1 1 0 0 0 1 1 1 1 1 2 2 2 2 2 2
11 15 13 11 7 7 9 12 7 6 6 7 7 6 5 6 5 5 5 4 4 2 2 2 2 2 1 1 0 1 1 1 1 0 0 0 0 -0 0 1 1 1 2 2 2 2 3 3 2
14 14 12 12 9 8 10 10 8 6 6 7 6 6 6 5 5 4 4 4 3 3 2 2 2 2 2 1 1 1 1 1 0 0 0 0 0 -0 0 0 2 1 2 2 2 3 2 2 2
10 11 12 10 8 10 10 10 8 7 7 7 7 6 5 5 4 4 4 4 4 4 2 2 2 2 2 2 2 1 2 1 1 0 0 0 0 0 0 0 0 0 1 1 2 3 3 2 2
11 12 12 9 8 10 10 10 9 8 7 7 7 6 6 5 5 4 4 4 3 4 3 2 1 1 1 2 2 2 1 1 1 0 0 0 0 0 0 0 0 0 1 1 1 2 2 2 2
11 12 12 12 9 9 10 12 11 9 8 7 6 6 5 5 5 4 4 4 4 4 4 2 1 1 1 1 1 2 2 3 3 1 1 0 0 0 0 0 0 0 0 1 1 1 1 2 2
14 9 10 11 12 17 11 18 12 10 10 9 8 8 7 6 5 4 4 5 4 4 3 2 2 1 1 1 1 2 3 3 3 3 1 0 -0 0 0 0 0 0 0 1 1 1 1 2 3
12 9 10 10 12 13 13 16 15 11 11 9 8 7 7 7 6 6 5 4 4 3 3 2 2 1 1 1 1 2 2 2 2 2 2 1 0 -0 0 0 0 0 0 1 1 1 1 1 2
8 10 10 12 14 19 15 15 16 14 11 10 8 7 7 6 6 6 5 4 4 4 3 3 3 2 1 1 1 2 2 2 2 2 2 2 2 1 0 0 0 0 0 1 1 1 1 1 1
10 13 19 20 20 20 12 15 14 11 9 8 7 7 7 6 6 6 8 8 7 6 5 2 3 2 2 1 1 1 2 2 2 2 3 3 3 3 2 1 1 1 0 0 1 1 1 1 1
12 13 18 22 21 19 13 18 14 9 7 7 7 6 6 7 8 8 8 8 8 7 7 5 3 3 2 2 2 1 1 1 1 1 2 3 3 3 2 1 2 1 1 1 2 1 1 1 1
12 15 11 16 16 19 16 14 10 8 9 8 7 7 7 7 7 8 8 7 8 8 8 7 6 4 3 2 2 1 1 1 2 1 1 2 2 2 2 2 2 2 2 2 2 2 2 1 1
10 9 16 15 22 22 17 16 14 11 9 8 8 8 8 8 7 6 6 6 6 7 7 8 7 7 5 5 4 2 1 1 1 1 2 2 2 2 2 2 2 2 2 2 2 2 2 2 1
12 13 13 13 15 20 20 16 10 10 9 9 8 8 9 9 7 6 6 6 6 6 7 7 8 8 7 6 5 5 3 2 1 1 1 2 2 2 2 1 2 2 2 2 2 2 2 2 3
9 11 12 17 19 16 17 17 9 9 8 8 8 8 8 7 6 6 6 6 6 6 5 6 7 8 8 7 7 5 4 3 2 2 1 1 1 1 2 1 1 2 2 2 2 2 3 3 3